Lid_Strength_Index
8 8 8 8 9 9 9 9 9 9 9 9 8 9 9 9 9 9 9 9 9 9 9 10 10 9 9 9 8 9 9 8 8 10 9 9 10 10 10 10 11 10 11
10 10 10 10 10 10 10 10 9 10 9 9 10 10 10 10 10 10 11 10 10 10 10 10 10 10 10 9 9 9 10 9 8 11 10 11 11 10 10 10 10 9 10
10 10 10 11 10 10 10 10 10 10 10 10 10 10 10 10 10 11 11 11 11 11 11 11 10 10 9 9 9 9 9 9 9 9 11 9 10 9 9 9 9 9 10
10 11 11 11 10 10 10 10 11 10 10 11 10 10 10 10 10 10 10 11 11 10 11 11 11 11 11 10 10 9 9 9 8 9 9 10 9 9 9 11 10 9 11
10 10 11 10 10 10 10 10 10 10 10 10 10 10 11 11 10 10 10 10 10 11 11 11 11 12 11 10 9 9 8 8 9 9 10 11 11 11 12 10 11 10 11
10 11 10 11 11 11 11 11 10 10 10 10 10 10 11 11 11 10 10 11 11 11 11 11 10 10 10 10 10 10 9 9 9 9 10 12 12 12 11 11 12 12 12
10 10 10 10 10 10 10 10 10 10 10 10 10 10 11 11 11 11 11 10 10 11 11 11 11 11 10 9 9 9 10 9 9 9 11 12 12 12 11 11 12 12 12
10 10 10 10 10 10 10 10 10 10 10 10 10 10 11 11 10 10 10 10 11 11 11 11 11 11 10 10 10 10 11 11 11 10 11 12 12 11 11 11 11 11 10
11 11 11 10 10 10 10 10 9 9 10 11 11 10 11 11 10 10 10 10 10 11 11 11 11 11 11 10 10 11 11 12 11 11 11 11 11 11 10 11 12 12 13
13 12 12 11 11 11 10 10 10 10 10 10 11 11 11 11 10 10 10 10 11 11 11 11 11 11 11 10 11 11 11 12 11 12 12 12 12 12 11 12 12 13 12
13 12 12 12 12 11 10 11 10 10 10 11 12 12 11 11 11 10 9 10 11 11 11 11 11 11 11 11 11 11 11 11 12 12 12 12 12 13 12 12 12 12 13
13 13 13 13 12 12 11 11 11 10 11 11 12 12 12 11 11 10 10 10 10 10 11 11 11 11 12 12 12 12 11 11 12 13 14 14 14 14 13 12 12 13 13
14 15 14 13 13 13 12 12 11 11 11 11 11 12 12 12 11 10 10 10 9 10 10 11 12 12 13 13 13 13 14 13 13 14 15 15 14 14 14 14 14 15 16
15 14 13 13 13 13 12 11 12 12 12 11 11 12 12 12 11 11 11 11 10 10 11 12 12 13 14 15 15 15 15 15 14 14 14 14 13 14 16 15 16 16 16
14 14 13 13 13 13 13 12 12 11 11 11 11 12 12 12 11 11 11 11 11 10 11 11 12 13 15 16 16 16 15 14 14 13 14 15 15 16 17 17 18 17 19
14 14 14 14 14 14 13 13 12 12 10 9 9 10 10 10 11 11 11 11 11 11 10 11 13 15 16 16 16 16 15 16 15 15 16 16 17 18 18 18 17 18 20
17 16 15 15 15 15 15 14 14 12 11 10 9 9 9 10 11 11 11 11 12 11 11 12 14 14 16 15 15 14 16 17 18 17 17 18 18 19 18 19 18 19 20
20 21 18 16 16 16 16 15 15 15 15 13 11 11 10 10 11 11 11 11 13 14 13 14 15 14 15 15 15 16 16 17 17 17 19 20 20 19 20 20 21 23 22
18 17 18 17 17 19 17 16 15 15 15 14 13 11 11 11 12 12 12 14 15 15 15 15 15 15 16 16 17 17 18 19 19 19 21 22 22 21 22 22 22 25 25
19 22 22 18 18 17 17 17 16 16 15 14 14 13 13 12 13 15 16 15 15 16 16 16 17 17 17 17 17 18 19 19 20 20 22 22 22 22 23 24 24 24 24
18 18 23 18 18 18 18 18 17 17 17 15 16 16 13 15 15 17 17 17 16 16 17 17 17 18 18 19 18 18 19 20 22 23 22 23 24 24 24 24 24 25 26
18 18 18 18 18 18 18 19 18 18 18 17 16 17 15 16 17 18 18 19 19 20 19 18 18 19 19 19 19 19 20 22 23 24 25 26 24 25 24 25 25 25 25
17 17 17 18 19 21 19 18 18 18 18 18 18 18 18 18 19 19 20 20 20 21 21 20 21 23 23 23 22 21 21 22 24 25 25 25 25 25 25 25 27 27 29
17 17 17 17 18 18 18 18 18 21 20 19 19 19 19 20 19 21 21 20 20 21 22 23 23 24 25 24 23 24 26 26 26 27 27 25 27 26 26 28 28 29 29
17 17 17 17 18 18 18 18 18 19 20 20 20 19 20 20 20 20 20 21 22 21 24 25 25 25 26 27 27 26 26 29 29 28 28 27 28 29 30 30 30 29 30
18 18 18 18 19 18 18 18 18 19 20 20 21 20 20 20 20 20 21 21 22 23 23 24 25 26 26 26 26 27 24 25 30 28 27 27 28 29 29 30 30 30 30